sat.trackr.live / text

‹ back to catalog

STARLINK-30184

NORAD 57310 · 2023-096W

PAYLOAD ACTIVE UNKNOWN

§ Identity

Operator
Country
US
Launch date
2023-07-10
Launch site
AFETR
Launch vehicle
Mass (kg)
RCS (m²)

Purposes: comms

External: N2YO · Heavens-Above · Gunter

§ Orbital elements

Epoch: 2026-05-25T05:03:15.994656Z

Period
94.27 min
Inclination
43.0022°
Eccentricity
0.0001178
Mean motion
15.27576448 rev/d
Perigee alt
482.3 km
Apogee alt
483.9 km
Semi-major
6,861.2 km
B*
4.8400e-5
RAAN
122.3149°
Arg perigee
266.2368°
Mean anomaly
93.8349°
Rev number
15,875

§ Raw data

STARLINK-301841 57310U 23096W   26145.21060179  .00001070  00000+0  48400-4 0  99972 57310  43.0022 122.3149 0001178 266.2368  93.8349 15.27576448158752

JSON: /api/v1/satellites/57310 · /tle

For live sub-satellite position, see the globe view (requires WebGL).

§ Visibility from observer

Set your observer location to see the next 7 days of passes ≥ 10°. The values pass through the URL so the page stays shareable.

No JS? Fill the form by hand. The geolocation button needs JavaScript.